Time,TemperatureF,DewpointF,PressureIn,WindDirection,WindDirectionDegrees,WindSpeedMPH,WindSpeedGustMPH,Humidity,HourlyPrecipIn,Conditions,Clouds,dailyrainin,SoftwareType,DateUTC
2013-03-06 00:01:00,33.0,10.0,-100.00,SSE,148,14.0,21.0,37,-99.99,,,-99.99,,2013-03-06 07:01:00,
2013-03-06 00:11:00,33.0,10.0,-100.00,SE,139,13.0,21.0,38,-99.99,,,-99.99,,2013-03-06 07:11:00,
2013-03-06 00:22:00,33.0,10.0,-100.00,SE,139,13.0,21.0,38,-99.99,,,-99.99,,2013-03-06 07:22:00,
2013-03-06 00:31:00,33.0,10.0,-100.00,SE,139,13.0,21.0,38,-99.99,,,-99.99,,2013-03-06 07:31:00,
2013-03-06 00:42:00,29.0,10.0,-100.00,SE,127,9.0,13.0,43,-99.99,,,-99.99,,2013-03-06 07:42:00,
2013-03-06 00:52:00,29.0,10.0,-100.00,SE,127,9.0,13.0,43,-99.99,,,-99.99,,2013-03-06 07:52:00,
2013-03-06 01:01:00,31.0,12.0,-100.00,SE,144,7.0,10.0,44,-99.99,,,-99.99,,2013-03-06 08:01:00,
2013-03-06 01:11:00,35.0,14.0,-100.00,SSE,148,6.0,12.0,42,-99.99,,,-99.99,,2013-03-06 08:11:00,
2013-03-06 01:21:00,35.0,14.0,-100.00,SSE,148,6.0,12.0,42,-99.99,,,-99.99,,2013-03-06 08:21:00,
2013-03-06 01:42:00,34.0,13.0,-100.00,SSE,149,11.0,18.0,42,-99.99,,,-99.99,,2013-03-06 08:42:00,
2013-03-06 01:52:00,35.0,14.0,-100.00,SSE,157,8.0,12.0,42,-99.99,,,-99.99,,2013-03-06 08:52:00,
2013-03-06 02:01:00,35.0,14.0,-100.00,SSE,157,8.0,12.0,42,-99.99,,,-99.99,,2013-03-06 09:01:00,
2013-03-06 02:12:00,34.0,13.0,-100.00,SSE,153,12.0,18.0,42,-99.99,,,-99.99,,2013-03-06 09:12:00,
2013-03-06 02:21:00,34.0,13.0,-100.00,SSE,153,12.0,18.0,42,-99.99,,,-99.99,,2013-03-06 09:21:00,
2013-03-06 02:31:00,34.0,13.0,-100.00,SSE,153,12.0,18.0,42,-99.99,,,-99.99,,2013-03-06 09:31:00,
2013-03-06 02:41:00,33.0,12.0,-100.00,SE,145,12.0,18.0,41,-99.99,,,-99.99,,2013-03-06 09:41:00,
2013-03-06 02:52:00,33.0,12.0,-100.00,SE,145,12.0,18.0,41,-99.99,,,-99.99,,2013-03-06 09:52:00,
2013-03-06 03:01:00,33.0,13.0,-100.00,SE,146,11.0,16.0,42,-99.99,,,-99.99,,2013-03-06 10:01:00,
2013-03-06 03:11:00,33.0,12.0,-100.00,SE,145,14.0,20.0,41,-99.99,,,-99.99,,2013-03-06 10:11:00,
2013-03-06 03:21:00,33.0,12.0,-100.00,SE,145,14.0,20.0,41,-99.99,,,-99.99,,2013-03-06 10:21:00,
2013-03-06 03:31:00,33.0,12.0,-100.00,SE,145,14.0,20.0,41,-99.99,,,-99.99,,2013-03-06 10:31:00,
2013-03-06 03:42:00,33.0,13.0,-100.00,SSE,150,11.0,16.0,43,-99.99,,,-99.99,,2013-03-06 10:42:00,
2013-03-06 03:52:00,34.0,14.0,-100.00,SSE,161,9.0,15.0,43,-99.99,,,-99.99,,2013-03-06 10:52:00,
2013-03-06 04:02:00,34.0,14.0,-100.00,SSE,161,9.0,15.0,43,-99.99,,,-99.99,,2013-03-06 11:02:00,
2013-03-06 04:11:00,35.0,14.0,-100.00,SSE,155,8.0,11.0,42,-99.99,,,-99.99,,2013-03-06 11:11:00,
2013-03-06 04:22:00,35.0,14.0,-100.00,SSE,155,8.0,11.0,42,-99.99,,,-99.99,,2013-03-06 11:22:00,
2013-03-06 04:31:00,35.0,14.0,-100.00,SSE,155,8.0,11.0,42,-99.99,,,-99.99,,2013-03-06 11:31:00,
2013-03-06 04:42:00,35.0,14.0,-100.00,SE,146,6.0,10.0,41,-99.99,,,-99.99,,2013-03-06 11:42:00,
2013-03-06 04:52:00,35.0,14.0,-100.00,SE,146,6.0,10.0,41,-99.99,,,-99.99,,2013-03-06 11:52:00,
2013-03-06 05:01:00,34.0,13.0,-100.00,SSE,159,8.0,12.0,41,-99.99,,,-99.99,,2013-03-06 12:01:00,
2013-03-06 05:11:00,34.0,13.0,-100.00,SSE,158,9.0,12.0,41,-99.99,,,-99.99,,2013-03-06 12:11:00,
2013-03-06 05:21:00,34.0,13.0,-100.00,SSE,158,9.0,12.0,41,-99.99,,,-99.99,,2013-03-06 12:21:00,
2013-03-06 05:30:00,35.0,14.0,-100.00,SSE,161,7.0,12.0,42,-99.99,,,-99.99,,2013-03-06 12:30:00,
2013-03-06 05:32:00,34.0,13.0,-100.00,SSE,158,9.0,12.0,41,-99.99,,,-99.99,,2013-03-06 12:32:00,
2013-03-06 05:42:00,35.0,14.0,-100.00,SSE,162,5.0,10.0,42,-99.99,,,-99.99,,2013-03-06 12:42:00,
2013-03-06 05:52:00,35.0,14.0,-100.00,SSE,162,5.0,10.0,42,-99.99,,,-99.99,,2013-03-06 12:52:00,
2013-03-06 06:02:00,35.0,14.0,-100.00,SSE,161,7.0,12.0,42,-99.99,,,-99.99,,2013-03-06 13:02:00,
2013-03-06 06:11:00,35.0,14.0,-100.00,SSE,161,7.0,12.0,42,-99.99,,,-99.99,,2013-03-06 13:11:00,
2013-03-06 06:21:00,35.0,14.0,-100.00,SSE,161,7.0,12.0,42,-99.99,,,-99.99,,2013-03-06 13:21:00,
2013-03-06 06:42:00,35.0,16.0,-100.00,South,171,7.0,14.0,46,-99.99,,,-99.99,,2013-03-06 13:42:00,
2013-03-06 06:52:00,35.0,16.0,-100.00,South,171,7.0,14.0,46,-99.99,,,-99.99,,2013-03-06 13:52:00,
2013-03-06 07:01:00,35.0,16.0,-100.00,SSE,156,4.0,14.0,45,-99.99,,,-99.99,,2013-03-06 14:01:00,
2013-03-06 07:11:00,35.0,16.0,-100.00,SSE,167,7.0,15.0,44,-99.99,,,-99.99,,2013-03-06 14:11:00,
2013-03-06 07:21:00,35.0,16.0,-100.00,SSE,167,7.0,15.0,44,-99.99,,,-99.99,,2013-03-06 14:21:00,
2013-03-06 07:41:00,35.0,16.0,-100.00,SSE,164,9.0,17.0,44,-99.99,,,-99.99,,2013-03-06 14:41:00,
2013-03-06 07:52:00,35.0,16.0,-100.00,SSE,164,9.0,17.0,44,-99.99,,,-99.99,,2013-03-06 14:52:00,
2013-03-06 08:01:00,35.0,16.0,-100.00,SSE,163,8.0,15.0,44,-99.99,,,-99.99,,2013-03-06 15:01:00,
2013-03-06 08:11:00,36.0,16.0,-100.00,SSE,147,8.0,15.0,43,-99.99,,,-99.99,,2013-03-06 15:11:00,
2013-03-06 08:21:00,36.0,16.0,-100.00,SSE,147,8.0,15.0,43,-99.99,,,-99.99,,2013-03-06 15:21:00,
2013-03-06 08:32:00,36.0,16.0,-100.00,SSE,147,8.0,15.0,43,-99.99,,,-99.99,,2013-03-06 15:32:00,
2013-03-06 08:42:00,34.0,14.0,-100.00,SE,143,9.0,15.0,43,-99.99,,,-99.99,,2013-03-06 15:42:00,
2013-03-06 08:52:00,34.0,14.0,-100.00,SE,143,9.0,15.0,43,-99.99,,,-99.99,,2013-03-06 15:52:00,
2013-03-06 09:01:00,34.0,14.0,-100.00,SSE,149,9.0,17.0,41,-99.99,,,-99.99,,2013-03-06 16:01:00,
2013-03-06 09:11:00,34.0,13.0,-100.00,SE,141,11.0,19.0,42,-99.99,,,-99.99,,2013-03-06 16:11:00,
2013-03-06 09:21:00,34.0,13.0,-100.00,SE,141,11.0,19.0,42,-99.99,,,-99.99,,2013-03-06 16:21:00,
2013-03-06 09:32:00,34.0,13.0,-100.00,SE,141,11.0,19.0,42,-99.99,,,-99.99,,2013-03-06 16:32:00,
2013-03-06 09:41:00,33.0,13.0,-100.00,SSE,148,14.0,22.0,42,-99.99,,,-99.99,,2013-03-06 16:41:00,
2013-03-06 09:52:00,33.0,13.0,-100.00,SSE,148,14.0,22.0,42,-99.99,,,-99.99,,2013-03-06 16:52:00,
2013-03-06 10:01:00,33.0,13.0,-100.00,SSE,154,8.0,16.0,41,-99.99,,,-99.99,,2013-03-06 17:01:00,
2013-03-06 10:11:00,35.0,13.0,-100.00,SE,127,8.0,18.0,40,-99.99,,,-99.99,,2013-03-06 17:11:00,
2013-03-06 10:21:00,35.0,13.0,-100.00,SE,127,8.0,18.0,40,-99.99,,,-99.99,,2013-03-06 17:21:00,
2013-03-06 10:30:00,38.0,15.0,-100.00,SE,125,10.0,19.0,38,-99.99,,,-99.99,,2013-03-06 17:30:00,
2013-03-06 10:31:00,35.0,13.0,-100.00,SE,127,8.0,18.0,40,-99.99,,,-99.99,,2013-03-06 17:31:00,
2013-03-06 10:41:00,36.0,15.0,-100.00,SE,130,12.0,20.0,40,-99.99,,,-99.99,,2013-03-06 17:41:00,
2013-03-06 10:52:00,36.0,15.0,-100.00,SE,130,12.0,20.0,40,-99.99,,,-99.99,,2013-03-06 17:52:00,
2013-03-06 11:01:00,38.0,15.0,-100.00,SE,125,10.0,19.0,38,-99.99,,,-99.99,,2013-03-06 18:01:00,
2013-03-06 11:28:00,38.0,15.0,-100.00,SE,125,10.0,19.0,38,-99.99,,,-99.99,,2013-03-06 18:28:00,
2013-03-06 11:42:00,38.0,16.0,-100.00,SE,142,12.0,29.0,41,-99.99,,,-99.99,,2013-03-06 18:42:00,
2013-03-06 11:52:00,38.0,16.0,-100.00,SE,142,12.0,29.0,41,-99.99,,,-99.99,,2013-03-06 18:52:00,
2013-03-06 12:02:00,38.0,16.0,-100.00,SE,142,14.0,25.0,40,-99.99,,,-99.99,,2013-03-06 19:02:00,
2013-03-06 12:11:00,38.0,16.0,-100.00,SE,141,14.0,27.0,40,-99.99,,,-99.99,,2013-03-06 19:11:00,
2013-03-06 12:21:00,38.0,16.0,-100.00,SE,141,14.0,27.0,40,-99.99,,,-99.99,,2013-03-06 19:21:00,
2013-03-06 12:32:00,38.0,16.0,-100.00,SE,141,14.0,27.0,40,-99.99,,,-99.99,,2013-03-06 19:32:00,
2013-03-06 12:42:00,39.0,17.0,-100.00,SE,134,13.0,32.0,40,-99.99,,,-99.99,,2013-03-06 19:42:00,
2013-03-06 12:53:00,39.0,17.0,-100.00,SE,134,13.0,32.0,40,-99.99,,,-99.99,,2013-03-06 19:53:00,
2013-03-06 13:01:00,40.0,17.0,-100.00,SE,144,15.0,26.0,39,-99.99,,,-99.99,,2013-03-06 20:01:00,
2013-03-06 13:11:00,41.0,16.0,-100.00,SSE,154,10.0,28.0,35,-99.99,,,-99.99,,2013-03-06 20:11:00,
2013-03-06 13:22:00,41.0,16.0,-100.00,SSE,154,10.0,28.0,35,-99.99,,,-99.99,,2013-03-06 20:22:00,
2013-03-06 13:32:00,41.0,16.0,-100.00,SSE,154,10.0,28.0,35,-99.99,,,-99.99,,2013-03-06 20:32:00,
2013-03-06 13:42:00,40.0,15.0,-100.00,SSE,155,15.0,26.0,36,-99.99,,,-99.99,,2013-03-06 20:42:00,
2013-03-06 13:52:00,40.0,15.0,-100.00,SSE,155,15.0,26.0,36,-99.99,,,-99.99,,2013-03-06 20:52:00,
2013-03-06 14:02:00,40.0,16.0,-100.00,SSE,156,12.0,28.0,37,-99.99,,,-99.99,,2013-03-06 21:02:00,
2013-03-06 14:11:00,41.0,16.0,-100.00,SSE,163,11.0,24.0,36,-99.99,,,-99.99,,2013-03-06 21:11:00,
2013-03-06 14:22:00,41.0,16.0,-100.00,SSE,163,11.0,24.0,36,-99.99,,,-99.99,,2013-03-06 21:22:00,
2013-03-06 14:31:00,41.0,16.0,-100.00,SSE,163,11.0,24.0,36,-99.99,,,-99.99,,2013-03-06 21:31:00,
2013-03-06 14:42:00,41.0,16.0,-100.00,South,171,9.0,23.0,35,-99.99,,,-99.99,,2013-03-06 21:42:00,
2013-03-06 14:52:00,41.0,16.0,-100.00,South,171,9.0,23.0,35,-99.99,,,-99.99,,2013-03-06 21:52:00,
2013-03-06 15:01:00,41.0,16.0,-100.00,South,169,9.0,20.0,36,-99.99,,,-99.99,,2013-03-06 22:01:00,
2013-03-06 15:11:00,42.0,16.0,-100.00,South,170,8.0,17.0,35,-99.99,,,-99.99,,2013-03-06 22:11:00,
2013-03-06 15:21:00,42.0,16.0,-100.00,South,170,8.0,17.0,35,-99.99,,,-99.99,,2013-03-06 22:21:00,
2013-03-06 15:31:00,42.0,16.0,-100.00,South,170,8.0,17.0,35,-99.99,,,-99.99,,2013-03-06 22:31:00,
2013-03-06 15:41:00,42.0,17.0,-100.00,South,181,8.0,20.0,36,-99.99,,,-99.99,,2013-03-06 22:41:00,
2013-03-06 15:52:00,42.0,17.0,-100.00,South,181,8.0,20.0,36,-99.99,,,-99.99,,2013-03-06 22:52:00,
2013-03-06 16:01:00,42.0,17.0,-100.00,SSE,167,8.0,23.0,35,-99.99,,,-99.99,,2013-03-06 23:01:00,
2013-03-06 16:11:00,42.0,18.0,-100.00,SSE,159,5.0,19.0,36,-99.99,,,-99.99,,2013-03-06 23:11:00,
2013-03-06 16:21:00,42.0,18.0,-100.00,SSE,159,5.0,19.0,36,-99.99,,,-99.99,,2013-03-06 23:21:00,
2013-03-06 16:31:00,42.0,18.0,-100.00,SSE,159,5.0,19.0,36,-99.99,,,-99.99,,2013-03-06 23:31:00,
2013-03-06 16:41:00,41.0,19.0,-100.00,South,181,8.0,17.0,40,-99.99,,,-99.99,,2013-03-06 23:41:00,
2013-03-06 16:52:00,41.0,19.0,-100.00,South,181,8.0,17.0,40,-99.99,,,-99.99,,2013-03-06 23:52:00,
2013-03-06 17:01:00,41.0,19.0,-100.00,South,182,9.0,19.0,40,-99.99,,,-99.99,,2013-03-07 00:01:00,
2013-03-06 17:11:00,40.0,18.0,-100.00,South,175,11.0,24.0,40,-99.99,,,-99.99,,2013-03-07 00:11:00,
2013-03-06 17:21:00,40.0,18.0,-100.00,South,175,11.0,24.0,40,-99.99,,,-99.99,,2013-03-07 00:21:00,
2013-03-06 17:32:00,40.0,18.0,-100.00,South,175,11.0,24.0,40,-99.99,,,-99.99,,2013-03-07 00:32:00,
2013-03-06 17:41:00,40.0,18.0,-100.00,SSE,165,10.0,23.0,41,-99.99,,,-99.99,,2013-03-07 00:41:00,
2013-03-06 17:52:00,40.0,18.0,-100.00,SSE,165,10.0,23.0,41,-99.99,,,-99.99,,2013-03-07 00:52:00,
2013-03-06 18:01:00,40.0,18.0,-100.00,South,176,10.0,21.0,40,-99.99,,,-99.99,,2013-03-07 01:01:00,
2013-03-06 18:11:00,40.0,18.0,-100.00,South,170,10.0,19.0,40,-99.99,,,-99.99,,2013-03-07 01:11:00,
2013-03-06 18:21:00,40.0,18.0,-100.00,South,170,10.0,19.0,40,-99.99,,,-99.99,,2013-03-07 01:21:00,
2013-03-06 18:31:00,40.0,18.0,-100.00,South,170,10.0,19.0,40,-99.99,,,-99.99,,2013-03-07 01:31:00,
2013-03-06 18:41:00,40.0,18.0,-100.00,SSE,165,11.0,24.0,40,-99.99,,,-99.99,,2013-03-07 01:41:00,
2013-03-06 18:52:00,40.0,18.0,-100.00,SSE,165,11.0,24.0,40,-99.99,,,-99.99,,2013-03-07 01:52:00,
2013-03-06 19:01:00,40.0,16.0,-100.00,South,171,12.0,21.0,37,-99.99,,,-99.99,,2013-03-07 02:01:00,
2013-03-06 19:11:00,40.0,15.0,-100.00,South,177,10.0,24.0,35,-99.99,,,-99.99,,2013-03-07 02:11:00,
2013-03-06 19:21:00,40.0,15.0,-100.00,South,177,10.0,24.0,35,-99.99,,,-99.99,,2013-03-07 02:21:00,
2013-03-06 19:31:00,40.0,15.0,-100.00,South,177,10.0,24.0,35,-99.99,,,-99.99,,2013-03-07 02:31:00,
2013-03-06 19:41:00,40.0,15.0,-100.00,South,177,10.0,24.0,35,-99.99,,,-99.99,,2013-03-07 02:41:00,
2013-03-06 20:01:00,39.0,13.0,-100.00,South,175,12.0,26.0,34,-99.99,,,-99.99,,2013-03-07 03:01:00,
2013-03-06 20:11:00,39.0,15.0,-100.00,South,181,10.0,22.0,37,-99.99,,,-99.99,,2013-03-07 03:11:00,
2013-03-06 20:21:00,39.0,15.0,-100.00,South,181,10.0,22.0,37,-99.99,,,-99.99,,2013-03-07 03:21:00,
2013-03-06 20:31:00,39.0,15.0,-100.00,South,181,10.0,22.0,37,-99.99,,,-99.99,,2013-03-07 03:31:00,
2013-03-06 20:41:00,37.0,19.0,-100.00,South,183,10.0,21.0,47,-99.99,,,-99.99,,2013-03-07 03:41:00,
2013-03-06 20:52:00,37.0,19.0,-100.00,South,183,10.0,21.0,47,-99.99,,,-99.99,,2013-03-07 03:52:00,
2013-03-06 21:01:00,35.0,23.0,-100.00,South,190,7.0,17.0,60,-99.99,,,-99.99,,2013-03-07 04:01:00,
2013-03-06 21:11:00,36.0,20.0,-100.00,South,189,5.0,13.0,52,-99.99,,,-99.99,,2013-03-07 04:11:00,
2013-03-06 21:21:00,36.0,20.0,-100.00,South,189,5.0,13.0,52,-99.99,,,-99.99,,2013-03-07 04:21:00,
2013-03-06 21:31:00,36.0,20.0,-100.00,South,189,5.0,13.0,52,-99.99,,,-99.99,,2013-03-07 04:31:00,
2013-03-06 21:41:00,35.0,23.0,-100.00,SSE,155,1.0,5.0,61,-99.99,,,-99.99,,2013-03-07 04:41:00,
2013-03-06 21:52:00,34.0,25.0,-100.00,West,281,4.0,7.0,70,-99.99,,,-99.99,,2013-03-07 04:52:00,
2013-03-06 22:01:00,34.0,25.0,-100.00,West,281,4.0,7.0,70,-99.99,,,-99.99,,2013-03-07 05:01:00,
2013-03-06 22:12:00,32.0,27.0,-100.00,WSW,257,3.0,7.0,81,-99.99,,,-99.99,,2013-03-07 05:12:00,
2013-03-06 22:22:00,32.0,27.0,-100.00,WSW,257,3.0,7.0,81,-99.99,,,-99.99,,2013-03-07 05:22:00,
2013-03-06 22:31:00,32.0,27.0,-100.00,WSW,257,3.0,7.0,81,-99.99,,,-99.99,,2013-03-07 05:31:00,
2013-03-06 22:41:00,31.0,28.0,-100.00,SW,217,2.0,5.0,88,-99.99,,,-99.99,,2013-03-07 05:41:00,
2013-03-06 22:52:00,31.0,28.0,-100.00,SW,217,2.0,5.0,88,-99.99,,,-99.99,,2013-03-07 05:52:00,
2013-03-06 23:01:00,30.0,28.0,-100.00,SSE,159,3.0,4.0,90,-99.99,,,-99.99,,2013-03-07 06:01:00,
2013-03-06 23:11:00,30.0,28.0,-100.00,ENE,61,1.0,3.0,91,-99.99,,,-99.99,,2013-03-07 06:11:00,
2013-03-06 23:21:00,30.0,28.0,-100.00,ENE,61,1.0,3.0,91,-99.99,,,-99.99,,2013-03-07 06:21:00,
2013-03-06 23:31:00,30.0,28.0,-100.00,ENE,61,1.0,3.0,91,-99.99,,,-99.99,,2013-03-07 06:31:00,
2013-03-06 23:41:00,29.0,28.0,-100.00,NNE,30,2.0,5.0,95,-99.99,,,-99.99,,2013-03-07 06:41:00,
2013-03-06 23:52:00,28.0,27.0,-100.00,WNW,294,3.0,7.0,95,-99.99,,,-99.99,,2013-03-07 06:52:00,